Regional Weather Roundup
Issued by NWS Northern Indiana

Home | Current Version | Previous Version | Text Only | Print | Product List | Glossary Off
Versions: 1 2 3 4 5 6 7 8 9 10 11 12 13 14 15 16 17 18 19 20 21 22 23 24 25 26 27 28 29 30 31 32 33 34 35 36 37 38 39 40 41 42 43 44 45 46 47 48 49 50

000
ASUS43 KIWX 300410
RWRIWX

KIWX WEATHER ROUNDUP
NATIONAL WEATHER SERVICE NORTHERN INDIANA
1200 AM EDT TUE MAY 30 2017

NOTE: "FAIR" INDICATES FEW OR NO CLOUDS BELOW 12,000 FEET WITH NO
SIGNIFICANT WEATHER AND/OR OBSTRUCTIONS TO VISIBILITY.

* THESE STATIONS ARE NOT UNDER NWS QUALITY CONTROL. THEY ALSO MAY NOT
  REPORT WEATHER SUCH AS PRECIPITATION OR FOG.

INZ001>027-300500-
NORTHERN INDIANA

CITY           SKY/WX    TMP DP  RH WIND       PRES   REMARKS
GARY*          CLEAR     59  48  66 S3        29.90S
VALPARAISO     CLEAR     61  47  59 W5        29.90S
MICHIGAN CITY* CLEAR     52  52 100 CALM      29.90S
LAPORTE*       CLEAR     56  49  79 SW3       29.91R
KNOX*          CLEAR     55  39  54 SW5       29.90S
SOUTH BEND     CLEAR     54  48  80 CALM      29.90S
GOSHEN         PTCLDY    57  50  77 S3        29.90S
MONTICELLO*    PTCLDY    61  50  66 S5        29.92S
LOGANSPORT*    MOCLDY    61  52  72 W5        29.94R
ROCHESTER*     PTCLDY    64  46  52 CALM      29.92S
WARSAW*        MOCLDY    57  48  72 CALM      29.91S
ANGOLA*        MOCLDY    55  54  94 CALM      29.90S
FORT WAYNE     MOCLDY    62  55  77 NW3       29.92F
HUNTINGTON*    LGT RAIN  62  52  69 CALM      29.93R
PERU/GRISSOM   CLOUDY    62  57  86 S7        29.92S

$$
INZ028>050-300500-
CENTRAL INDIANA

CITY           SKY/WX    TMP DP  RH WIND       PRES   REMARKS
LAFAYETTE      MOCLDY    59  57  93 CALM      29.93R
KOKOMO*        CLOUDY    62  57  83 SW7       29.95R
MUNCIE*        CLOUDY    65  57  75 NW3       29.94R
INDIANAPOLIS   CLOUDY    64  56  75 NW7       29.94S

$$
MIZ043>046-050>051-056>058-064>065-071>073-077>080-300500-
SOUTHWEST LOWER MICHIGAN

CITY           SKY/WX    TMP DP  RH WIND       PRES   REMARKS
BATTLE CREEK   CLEAR     56  48  74 SW5       29.88S
BENTON HARBOR  CLEAR     53  47  79 CALM      29.88S
COLDWATER*     CLEAR     56  48  76 CALM      29.89S
HILLSDALE*     PTCLDY    55  45  67 CALM      29.89S
HOLLAND        CLEAR     54  47  77 CALM      29.88S
GRAND RAPIDS   CLEAR     60  47  61 W9        29.86R
KALAMAZOO      CLEAR     58  45  62 W3        29.88S
STURGIS*       CLEAR     55  49  80 CALM      29.89S
THREE RIVERS*  FAIR      55  50  85 S3        29.89S

$$
OHZ001>008-015>018-024>025-300500-
NORTHWEST OHIO

CITY           SKY/WX    TMP DP  RH WIND       PRES   REMARKS
WAUSEON*       MOCLDY    61  52  72 W5        29.90R
DEFIANCE       MOCLDY    60  54  80 CALM      29.91R
FINDLAY        CLEAR     61  52  72 S7        29.90R
TOLEDO EXPRESS CLOUDY    57  57 100 CALM      29.90R
TOLEDO METCALF MOCLDY    64  55  72 SW5       29.90R
LIMA           CLOUDY    64  55  72 SW7       29.91R

$$
AND FOR LAKE MICHIGAN COASTAL AND OPEN LAKE BUOY OBSERVATIONS

STATION/POSITION TEMP    WIND        PRES    VSBY  WAVE
                 AIR SEA DIR/SP/G                  HT/PER
                 (F)     (DEG/KT/KT) (MB)    (MI)  (FT/S)
CALUMET HARBOR    66     220/  2/  3 1011.7R
MICHIGAN CITY     63     190/  3/  4   N/A
BURNS HARBOR      64     220/  4/  5 1012.9R
SOUTH LAKE BUOY   52 48  240/  4/  4 1011.6          1/ 4
4 MI NW BRIDGMAN  60 59  200/  6/  6 1012.1          2/ 4
MICHIGAN CITY     59 56  210/  4/  6   N/A           1/ 3

$$
&&




USA.gov is the U.S. government's official web portal to all federal, state and local government web resources and services.